Location: Hastringsfeld
(50.9620°N, 10.4787°E)
Time: 21:03:19
(UTC+00:00)

ATLAS 3B R/B - Pass Details

Date: 28 April 2024
Orbit: 943 x 1251 km, 63.8° (Epoch: 20 May)

Event Time Altitude Azimuth Distance (km) Brightness Sun altitude
Rises 02:10:06 0° 315° (NW) 4,182 5.8 -14.5°
Reaches altitude 10° 02:13:07 10° 307° (NW) 3,228 5.1 -14.2°
Maximum altitude 02:20:01 35° 246° (WSW) 1,896 3.5 -13.4°
Drops below altitude 10° 02:26:50 10° 184° (S) 3,183 4.8 -12.6°
Sets 02:29:49 0° 176° (S) 4,117 5.4 -12.3°
